EW9807 Weather Reports


Display with metric or nautical units.
time (UTC)temp
F
wind
direction
speed
MPH
gust
MPH
rain 1hr
in
rain 24hr
in
rain mn
in
humidity
%
barometer
mb
20260504045545 50 169 0.0 0.0 0.00 0.00 0.00 85 1018.8
20260504045057 50 169 0.0 0.0 0.00 0.00 0.00 84 1018.8
20260504044545 50 169 0.0 0.0 0.00 0.00 0.00 83 1018.9
20260504043605 51 169 0.0 0.0 0.00 0.00 0.00 82 1018.8
20260504043052 51 169 0.0 0.0 0.00 0.00 0.00 81 1018.7
20260504042600 51 169 0.0 1.0 0.00 0.00 0.00 81 1018.8
20260504042049 51 169 0.0 1.0 0.00 0.00 0.00 80 1018.8
20260504041601 51 169 0.0 0.0 0.00 0.00 0.00 78 1018.8
20260504041053 52 169 0.0 0.0 0.00 0.00 0.00 79 1018.8
20260504040558 52 169 0.0 0.0 0.00 0.00 0.00 78 1018.7
20260504040116 52 169 0.0 0.0 0.00 0.00 0.00 78 1018.7
20260504035555 52 169 0.0 0.0 0.00 0.00 0.00 79 1018.7
20260504034048 53 169 0.0 0.0 0.00 0.00 0.00 77 1018.8
20260504033600 53 169 0.0 0.0 0.00 0.00 0.00 77 1018.8
20260504032557 53 169 0.0 0.0 0.00 0.00 0.00 75 1018.9
20260504032103 53 169 0.0 0.0 0.00 0.00 0.00 74 1018.8
20260504031554 54 169 0.0 0.0 0.00 0.00 0.00 74 1018.9
20260504031101 54 169 0.0 0.0 0.00 0.00 0.00 74 1018.7
20260504030547 54 169 0.0 0.0 0.00 0.00 0.00 74 1018.7
20260504025058 54 169 0.0 0.0 0.00 0.00 0.00 71 1018.7
20260504024549 54 169 0.0 0.0 0.00 0.00 0.00 72 1018.7
20260504024052 54 169 0.0 0.0 0.00 0.00 0.00 72 1018.7
20260504023601 55 169 0.0 0.0 0.00 0.00 0.00 71 1018.6
20260504023050 55 169 0.0 0.0 0.00 0.00 0.00 71 1018.5
20260504022558 55 169 0.0 0.0 0.00 0.00 0.00 73 1018.4
20260504021104 56 169 0.0 0.0 0.00 0.00 0.00 72 1018.2
20260504020553 56 169 0.0 0.0 0.00 0.00 0.00 72 1018.1
20260504020101 56 169 0.0 0.0 0.00 0.00 0.00 70 1018.0
20260504020001 56 169 0.0 0.0 0.00 0.00 0.00 70 1017.8
20260504015607 56 169 0.0 0.0 0.00 0.00 0.00 70 1018.0
20260504015054 57 169 0.0 0.0 0.00 0.00 0.00 68 1017.8
20260504015009 56 169 0.0 0.0 0.00 0.00 0.00 68 1017.6
20260504014053 57 169 0.0 0.0 0.00 0.00 0.00 65 1017.8
20260504013601 57 169 0.0 0.0 0.00 0.00 0.00 65 1017.7
20260504013051 58 169 0.0 0.0 0.00 0.00 0.00 62 1017.6
20260504012551 58 169 0.0 0.0 0.00 0.00 0.00 62 1017.5
20260504012102 59 169 0.0 0.0 0.00 0.00 0.00 63 1017.4
20260504011058 59 169 0.0 0.0 0.00 0.00 0.00 61 1017.3
20260504010546 59 169 0.0 0.0 0.00 0.00 0.00 60 1017.3
20260504010057 60 169 0.0 0.0 0.00 0.00 0.00 59 1017.2
20260504005601 60 169 0.0 0.0 0.00 0.00 0.00 60 1017.3
20260504004558 61 169 0.0 0.0 0.00 0.00 0.00 55 1017.2
20260504004045 62 169 0.0 0.0 0.00 0.00 0.00 56 1017.1
20260504003556 62 169 0.0 1.0 0.00 0.00 0.00 53 1017.1
20260504003102 63 169 0.0 1.0 0.00 0.00 0.00 52 1017.0
20260504002604 63 169 0.0 0.0 0.00 0.00 0.00 53 1017.1
20260504002048 63 169 0.0 0.0 0.00 0.00 0.00 50 1016.9
20260504001558 64 169 0.0 0.0 0.00 0.00 0.00 49 1016.9
20260504001104 64 169 0.0 0.0 0.00 0.00 0.00 48 1016.9
20260504000103 65 169 0.0 0.0 0.00 0.00 0.00 47 1016.9
20260503235547 65 169 0.0 0.0 0.00 0.00 0.00 46 1016.8
20260503235055 65 169 0.0 1.0 0.00 0.00 0.00 48 1016.8
20260503234601 65 169 0.0 0.0 0.00 0.00 0.00 46 1016.8
20260503234050 66 169 0.0 0.0 0.00 0.00 0.00 44 1016.9
20260503233558 66 169 0.0 1.0 0.00 0.00 0.00 43 1016.9
20260503232557 66 169 0.0 1.0 0.00 0.00 0.00 43 1016.8
20260503231556 67 178 0.0 3.0 0.00 0.00 0.00 41 1016.8
20260503231046 67 178 1.0 3.0 0.00 0.00 0.00 41 1016.8
20260503230552 67 209 0.0 2.0 0.00 0.00 0.00 43 1016.9
20260503230100 68 209 1.0 8.0 0.00 0.00 0.00 40 1016.9
20260503225603 68 174 1.0 8.0 0.00 0.00 0.00 40 1016.9
20260503225052 68 213 1.0 6.0 0.00 0.00 0.00 40 1016.9
20260503224602 69 179 3.0 6.0 0.00 0.00 0.00 38 1016.9
20260503224053 68 179 0.0 1.0 0.00 0.00 0.00 39 1016.9
20260503223601 68 179 0.0 3.0 0.00 0.00 0.00 40 1016.9
20260503223049 69 179 2.0 3.0 0.00 0.00 0.00 39 1016.9
20260503222552 69 169 1.0 7.0 0.00 0.00 0.00 39 1016.9
20260503222102 69 169 4.0 7.0 0.00 0.00 0.00 38 1017.0
20260503221551 69 331 1.0 5.0 0.00 0.00 0.00 40 1016.9
20260503221103 69 181 2.0 4.0 0.00 0.00 0.00 38 1017.0
20260503220553 69 166 1.0 5.0 0.00 0.00 0.00 37 1017.1
20260503215554 70 198 3.0 8.0 0.00 0.00 0.00 37 1017.1
20260503215100 70 208 2.0 7.0 0.00 0.00 0.00 38 1017.1
20260503214607 70 236 2.0 7.0 0.00 0.00 0.00 40 1017.1
20260503214054 69 184 1.0 5.0 0.00 0.00 0.00 40 1017.2
20260503213602 69 68 1.0 2.0 0.00 0.00 0.00 39 1017.2
20260503213109 70 68 1.0 5.0 0.00 0.00 0.00 36 1017.2
20260503212556 70 154 3.0 8.0 0.00 0.00 0.00 37 1017.3
20260503212102 70 204 2.0 8.0 0.00 0.00 0.00 38 1017.3
20260503211059 70 183 1.0 9.0 0.00 0.00 0.00 36 1017.3
20260503210504 69 155 3.0 9.0 0.00 0.00 0.00 39 1017.1
20260503210130 69 149 1.0 3.0 0.00 0.00 0.00 40 1017.3
20260503205104 69 321 1.0 3.0 0.00 0.00 0.00 40 1017.4
20260503204552 69 320 0.0 3.0 0.00 0.00 0.00 40 1017.4
20260503204056 69 321 1.0 3.0 0.00 0.00 0.00 38 1017.5
20260503203057 69 176 0.0 4.0 0.00 0.00 0.00 40 1017.6
20260503202604 69 171 2.0 6.0 0.00 0.00 0.00 41 1017.7
20260503202051 70 172 2.0 9.0 0.00 0.00 0.00 40 1017.7
20260503201553 70 214 5.0 9.0 0.00 0.00 0.00 39 1017.9
20260503201100 70 167 2.0 9.0 0.00 0.00 0.00 39 1017.9
20260503200550 70 209 1.0 9.0 0.00 0.00 0.00 42 1018.0
20260503200059 70 188 3.0 6.0 0.00 0.00 0.00 41 1018.0
20260503195559 70 201 3.0 9.0 0.00 0.00 0.00 43 1018.1
20260503195047 69 193 3.0 9.0 0.00 0.00 0.00 43 1018.1
20260503194557 69 301 1.0 8.0 0.00 0.00 0.00 39 1018.1
20260503194045 69 179 4.0 8.0 0.00 0.00 0.00 41 1018.4
20260503193554 68 243 1.0 3.0 0.00 0.00 0.00 40 1018.5
20260503193102 68 337 2.0 3.0 0.00 0.00 0.00 39 1018.5
20260503192604 68 154 2.0 3.0 0.00 0.00 0.00 38 1018.6
20260503192049 69 185 1.0 4.0 0.00 0.00 0.00 39 1018.7
20260503191557 69 271 1.0 4.0 0.00 0.00 0.00 41 1018.8
20260503190558 69 186 2.0 8.0 0.00 0.00 0.00 38 1018.9
20260503185557 69 3 2.0 6.0 0.00 0.00 0.00 40 1019.1
20260503185046 69 288 1.0 6.0 0.00 0.00 0.00 38 1019.2
20260503184550 69 184 3.0 6.0 0.00 0.00 0.00 36 1019.3
20260503184101 69 303 1.0 7.0 0.00 0.00 0.00 38 1019.5
20260503183551 68 177 3.0 6.0 0.00 0.00 0.00 41 1019.5
20260503182549 69 169 2.0 10.0 0.00 0.00 0.00 39 1019.6
20260503181553 69 228 4.0 7.0 0.00 0.00 0.00 41 1019.7
20260503181056 68 203 2.0 7.0 0.00 0.00 0.00 39 1019.6
20260503180542 70 131 4.0 7.0 0.00 0.00 0.00 38 1019.7
20260503180055 69 185 3.0 6.0 0.00 0.00 0.00 40 1019.7
20260503175604 68 210 2.0 6.0 0.00 0.00 0.00 44 1019.8
20260503175052 68 27 1.0 5.0 0.00 0.00 0.00 41 1019.8
20260503173603 67 271 2.0 4.0 0.00 0.00 0.00 42 1019.9
20260503173110 67 174 1.0 3.0 0.00 0.00 0.00 45 1020.0
20260503172553 67 240 0.0 2.0 0.00 0.00 0.00 43 1020.1
20260503172100 68 227 1.0 6.0 0.00 0.00 0.00 41 1020.2
20260503171057 67 160 4.0 7.0 0.00 0.00 0.00 41 1020.2
20260503170547 68 257 2.0 6.0 0.00 0.00 0.00 45 1020.2
20260503170130 67 174 1.0 6.0 0.00 0.00 0.00 45 1020.2
20260503150556 61 184 2.0 6.0 0.00 0.00 0.00 54 1020.9
20260503150105 61 184 3.0 8.0 0.00 0.00 0.00 55 1021.0
20260503131053 53 251 0.0 0.0 0.00 0.00 0.00 76 1020.4
20260503110548 43 303 0.0 0.0 0.00 0.02 0.00 90 1019.7
20260503081550 46 303 0.0 0.0 0.00 0.02 0.00 85 1018.6
20260503081056 46 303 0.0 0.0 0.00 0.02 0.00 85 1018.5
20260503080549 46 303 0.0 0.0 0.00 0.02 0.00 85 1018.4
20260503072553 48 303 0.0 0.0 0.00 0.03 0.00 79 1018.1
20260503072102 48 303 0.0 0.0 0.00 0.03 0.00 78 1018.0
20260503071548 48 303 0.0 0.0 0.00 0.03 0.00 77 1018.0
20260503071056 48 303 0.0 0.0 0.00 0.03 0.00 77 1018.0
20260503070549 48 303 0.0 0.0 0.00 0.03 0.00 76 1018.0
20260503055056 48 303 0.0 0.0 0.00 0.04 0.00 79 1017.7
20260503054546 48 303 0.0 0.0 0.00 0.04 0.00 80 1017.8
20260503053548 48 303 0.0 0.0 0.00 0.04 0.00 80 1017.7
20260503053057 48 303 0.0 0.0 0.00 0.04 0.00 80 1017.7
20260503052559 48 303 0.0 0.0 0.00 0.04 0.00 80 1017.7
20260503052046 48 303 0.0 0.0 0.00 0.04 0.00 80 1017.7
20260503051558 48 303 0.0 0.0 0.00 0.04 0.00 79 1017.6
20260503051046 48 303 0.0 0.0 0.00 0.04 0.00 79 1017.6
20260503050555 49 303 0.0 0.0 0.00 0.04 0.00 79 1017.6
20260503050509 48 303 0.0 0.0 0.00 0.04 0.00 79 1017.3